Location: Gleizolles
(44.4833°N, 6.7667°E)
Time: 23:19:19
(UTC+00:00)

PCSat - Pass Details

Date: 12 December 2022
Orbit: 785 x 793 km, 67.1° (Epoch: 04 February)

Event Time Altitude Azimuth Distance (km) Brightness Sun altitude
Rises 18:53:46 0° 267° (W) 3,279 13.9 -31.2°
Reaches altitude 10° 18:57:13 10° 289° (WNW) 2,355 12.8 -31.8°
Maximum altitude 19:00:22 15° 325° (NW) 2,002 11.9 -32.4°
Enters shadow 19:01:46 14° 343° (NNW) 2,080 11.9 -32.6°
